Retour au catalogue

STARLINK-11097

ActifCommunicationsVLEO
NORAD 59759·PAYLOAD·🇺🇸 United States

Lancé May 14, 2024 depuis Vandenberg Space Force Base

Loading…

Prochains Passages (prochaines 24 heures)

TLE

FraisSource: CelesTrak SupGP

Époque: Sep 14, 2026, 20:32 UTC

1 59759C 24091G   26257.85604167  .00007267  00000+0  59821-4 0  2577
2 59759  53.1564 353.7319 0001084  74.8106 305.6253 15.69720268    12

Suivez STARLINK-11097 en temps réel avec AllMySat

Download on the App Store